Other Public Products
Issued by NWS Grand Forks, ND

Home | Current Version | Previous Version | Text Only | Print | Product List | Glossary On
Versions: 1 2 3 4 5 6 7 8 9 10 11 12 13 14 15 16 17 18 19 20 21 22 23 24 25 26 27 28 29 30 31 32 33 34 35 36 37 38 39 40 41 42 43 44 45 46 47 48 49 50
328
FPUS83 KFGF 311010
OPUFGF
PRAIRIE TO PINES WEATHER ROUNDUP
NATIONAL WEATHER SERVICE EASTERN NORTH DAKOTA/GRAND FORKS ND
500 AM CDT SUN JUL 31 2016

 **SATELLITE DATA USED TO AUGMENT SKY COVER AT AUTOMATED STATIONS**
 *****  WEATHER ACROSS EASTERN NORTH DAKOTA  *****

CITY           SKY/WX    TMP DP  RH WIND       PRES   REMARKS
GRAND FORKS    CLEAR     61  57  87 SE8       29.86S
GRAND FORKS AF CLEAR     62  57  85 S7        29.86S
GRAND CITY NWS NOT AVBL
BUXTON           N/A     61  61  98 SE7         N/A
DEVILS LAKE    CLEAR     66  61  84 SE13      29.83S
FARGO          PTCLDY    66  57  72 SE13      29.88S
WAHPETON ARPT  MOSUNNY   59  55  88 SE7       29.90F
$$

 *****  WEATHER ACROSS CENTRAL AND WESTERN NORTH DAKOTA  *****

CITY           SKY/WX    TMP DP  RH WIND       PRES   REMARKS
JAMESTOWN      PTCLDY    63  60  90 SE12      29.84R
BISMARCK       CLEAR     67  64  90 SE9       29.78R
MINOT          CLEAR     67  62  84 E6        29.73F
MINOT AFB      CLEAR     60  59  96 SE8       29.72F
GARRISON         N/A     65  64  97 SE3       29.76S
WILLISTON      CLOUDY    68  59  73 CALM      29.67F
DICKINSON      MOCLDY    62  59  90 W8        29.77F
HETTINGER      CLEAR     63  56  78 SE3       29.78F
$$

 *****  OTHER OBSERVATIONS NORTHEAST NORTH DAKOTA  *****

CITY           SKY/WX    TMP DP  RH WIND       PRES   REMARKS
WALHALLA       NOT AVBL
LANGDON        FAIR      63  61  94 SE9       29.85R
CAVALIER       FAIR      64  59  82 S7        29.85S
GRAFTON        FAIR      63  61  94 SE8       29.87S
CANDO          NOT AVBL
FORT TOTTEN    NOT AVBL
ROLLA          FAIR      61  61 100 S7        29.83S
RUGBY          NOT AVBL
 ***** THE ABOVE OBSERVATIONS ARE NON NWS ARE NOT QUALITY
        CONTROLLED AND MAY MIS-REPORT RAIN FOR SNOW...
$$

 *****  OTHER OBSERVATIONS SOUTHEAST NORTH DAKOTA *****

CITY           SKY/WX    TMP DP  RH WIND       PRES   REMARKS
COOPERSTOWN    NOT AVBL
VALLEY CITY    FAIR      63  63 100 S12       29.88S
OAKES            N/A    N/A N/A N/A MISG        N/A
GWINNER        FAIR      63  61  94 SE7       29.87F
SHEYENNE NWR     N/A     59  57  93 SE5       29.95S
BUFFALO          N/A     59  56  90 SE8         N/A
WYNDMERE       NOT AVBL
 ***** THE ABOVE OBSERVATIONS ARE NON NWS ARE NOT QUALITY
       CONTROLLED AND MAY MIS-REPORT RAIN FOR SNOW...
$$

  *****  WEATHER ACROSS NORTHERN MINNESOTA  *****

CITY           SKY/WX    TMP DP  RH WIND       PRES   REMARKS
FLAG ISLAND    CLOUDY    72  64  78 S12       29.92F
WARROAD        NOT AVBL
ROSEAU         MOCLDY    64  59  82 S5        29.92S
HALLOCK        CLEAR     63  59  88 SE8       29.87S
THF RVR FALLS  CLEAR     59  57  93 SE8       29.92F
HALSTAD          N/A     58  57  96 SE6         N/A
FOSSTON        CLEAR     61  55  82 SE6       29.93F
BAUDETTE       CLEAR     61  59  93 SE7       29.96R
WASKISH        CLEAR     59  57  94 CALM      29.96F
CROOKSTON      CLEAR     61  57  88 SE8       29.90R
$$
  *****  WEATHER ACROSS CENTRAL AND WEST MINNESOTA  *****

CITY           SKY/WX    TMP DP  RH WIND       PRES   REMARKS
BEMIDJI        CLEAR     61  60  98 SE6       29.96F
PARK RAPIDS    CLEAR     64  60  87 SE7       29.96F
WADENA         NOT AVBL
DETROIT LAKES  CLEAR     63  59  88 SE8       29.95R
MOORHEAD       CLEAR     63  57  82 SE8       29.90S
FERGUS FALLS   CLEAR     66  61  82 SE12      29.93S
ELBOW LAKE     FAIR      63  61  93 E12       29.92F
MORRIS MN      CLOUDY    63  61  94 SE7       29.92S
STAPLES        CLEAR     63  61  94 SE3       29.97S
WHEATON        PTCLDY    61  57  88 SE7       29.92S
$$
  *****  WEATHER ELSEWHERE ACROSS MINNESOTA  *****

CITY           SKY/WX    TMP DP  RH WIND       PRES   REMARKS
DULUTH         PTCLDY    58  58 100 E5        30.03F
INTRNTL FALLS  CLEAR     59  58  96 S3        29.99S
ELY            PTCLDY    55  54  94 CALM      30.03F
CLOQUET        FOG       61  59  94 SE3       30.03F VSB 1/2
BRAINERD       CLEAR     63  61  93 VRB3      29.98F
HIBBING        FOG       49  49 100 CALM      30.02S VSB 1
ALEXANDRIA     CLEAR     62  60  93 SE6       29.96F
SAINT CLOUD    CLEAR     62  62 100 SE3       29.98R
MINNEAPOLIS    PTCLDY    68  63  84 S8        29.99F
$$

  *****  WEATHER ACROSS SOUTH DAKOTA  *****

CITY           SKY/WX    TMP DP  RH WIND       PRES   REMARKS
SIOUX FALLS    CLOUDY    67  62  84 SE10      29.91F
BROOKINGS      MOCLDY    63  60  90 SE12      29.90F
WATERTOWN      CLOUDY    64  59  83 SE9       29.90F
HURON          CLOUDY    71  64  78 SE14      29.82F
SISSETON         N/A     58  57  97 S5        29.88F
ABERDEEN       CLOUDY    66  62  87 SE7       29.83F
MITCHELL       CLOUDY    72  65  78 S20       29.83F
PIERRE         CLOUDY    67  64  90 CALM      29.77S
MOBRIDGE       CLOUDY    69  64  84 NE16G22   29.76F
RAPID CITY     CLOUDY    69  55  60 SW13      29.81F
$$

  *****  SOME WEATHER IN NEARBY STATES *****

CITY           SKY/WX    TMP DP  RH WIND       PRES   REMARKS
GLASGOW MT     CLEAR     67  58  72 SE10      29.61R
GREAT FALLS MT CLEAR     58  51  78 NW13      29.82R
CHEYENNE WY    CLEAR     61  55  81 W9        30.02S
SCOTTSBLUFF NE CLEAR     67  63  87 E12       29.88R
OMAHA NE       CLOUDY    72  63  73 SE9       29.92F
DES MOINES IA  PTCLDY    70  65  84 SE5       29.97F
DAVENPORT IA   CLEAR     65  63  93 E5        30.02R
CHICAGO IL     CLEAR     65  63  93 N6        30.00R
EAU CLAIRE WI  CLOUDY    63  58  83 E5        30.04S
LA CROSSE WI   CLOUDY    66  61  84 E8        30.04R
$$

  *****  SOME NATIONAL WEATHER *****

CITY           SKY/WX    TMP DP  RH WIND       PRES   REMARKS
LA GUARDIA NY  LGT RAIN  76  73  91 E7        29.99R
RALEIGH NC     PTCLDY    75  72  90 SW8       29.99R
ATLANTA GA     CLOUDY    73  72  96 CALM      30.05R
NEW ORLEANS LA CLEAR     81  77  88 CALM      30.00S
OKLAHOMA CITY  CLEAR     74  69  85 S7        29.93R
ALBUQUERQUE NM CLOUDY    69  57  65 N3        30.14F
SALT LAKE CITY MOCLDY    78  52  40 S9        29.94S
LOS ANGELES CA MOCLDY    69  65  86 N5        29.87F
BOISE ID       CLEAR     69  39  33 W6        29.82R
SEATTLE WA     MOCLDY    57  52  83 S6        30.01R
$$

*** WEATHER ACROSS MANITOBA...SASKATCHEWAN AND ONTARIO ***
                ***ONTARIO***

CITY           SKY/WX    TMP DP  RH WIND       PRES   REMARKS
GERALDTON      PTCLDY    48  46  93 CALM      30.07S
THUNDER BAY    PTCLDY    54  54 100 SW2       30.05S
SIOUX LOOKOUT  LGT RAIN  63  61  94 S7        29.99R
TORONTO        CLOUDY    70  54  56 NE8       30.01S
BIG TROUT LK   PTCLDY    68  59  73 SW8       29.88R
PICKLE LAKE    NOT AVBL
DRYDEN         PTCLDY    66  61  82 S8        29.99R
KENORA         MOCLDY    68  61  77 S9        29.95F
$$
                *** MANITOBA***

CITY           SKY/WX    TMP DP  RH WIND       PRES   REMARKS
BRANDON        PTCLDY    61  59  94 E7        29.78F
DAUPHIN        CLEAR     59  57  94 NE3       29.74F
ISLAND LAKE    PTCLDY    66  61  82 SE5       29.83S
PILOT MOUND      N/A     61  59  94 S10         N/A
THE PAS        PTCLDY    66  64  94 SE7       29.71F
THOMPSON       FOG       63  61  94 NE3       29.78R VSB 1
WINNIPEG       MOCLDY    68  59  73 S15G21    29.85S
LYNN LAKE      CLOUDY    59  57  94 MISG      29.78S
CHURCHILL      CLOUDY    48  46  93 NE8       29.91S
GILLAM         FOG       54  54 100 E7        29.83S VSB 3/8
$$
                ***SASKATCHEWAN***

CITY           SKY/WX    TMP DP  RH WIND       PRES   REMARKS
ESTEVAN        PTCLDY    63  61  94 E9        29.69F
KINDERSLEY     NOT AVBL
LLOYDMINSTER   CLOUDY    57  57 100 NW7       29.69S
PRINCE ALBERT  MOCLDY    63  63 100 CALM      29.64R
REGINA         MOCLDY    63  59  88 NW10G24   29.79R
YORKTON        CLEAR     63  61  94 SE9       29.72S   C1F1C2F2C3F3C4F4C5F5C6F6C7F7C8F8C9F9CaFaCbFbCcFcCdFdCe!



USA.gov is the U.S. government's official web portal to all federal, state and local government web resources and services.